User: anonymous   Login
Location: Unspecified
(0.0000°N, 0.0000°E)
Time: 06:40:28
(UTC+00:00)
Language:

Kosmos-1655 - Orbit

View from above orbital plane
View from above orbital plane
View from above satellite
View from above satellite

Ground track
Ground track

The orbit data is extracted from the following two-line orbital elements,

1 15751U 85041A   18321.90358030  .00000038  00000-0  25659-4 0  9992
2 15751  82.9464 304.2777 0025836 215.6769 205.2776 13.71701718675423
Epoch (UTC): 17 November 2018 21:41:09
Eccentricity: 0.0025836
inclination: 82.9464°
perigee height: 974 km
apogee height: 1012 km
right ascension of ascending node: 304.2777°
argument of perigee: 215.6769°
revolutions per day: 13.71701718
mean anomaly at epoch: 205.2776°
orbit number at epoch: 67542

The dashed part of the orbit path shows where the satellite is in the earth's shadow,  

DLR